FW3157 Weather Reports


time (UTC)temp
C
wind
direction
speed
KPH
gust
KPH
rain 1hr
cm
rain 24hr
cm
rain mn
cm
humidity
%
barometer
mb
20260505001402 13 101 0.0 0.0 0.00 0.00 0.00 64 1016.9
20260505000856 13 101 0.0 0.0 0.00 0.00 0.00 63 1016.7
20260505000351 13 101 0.0 0.0 0.00 0.00 0.00 62 1016.9
20260504235844 13 101 0.0 0.0 0.00 0.00 0.00 62 1016.9
20260504235338 13 101 0.0 0.0 0.00 0.00 0.00 62 1016.7
20260504234831 13 101 0.0 0.0 0.00 0.00 0.00 61 1016.9
20260504234326 13 101 0.0 0.0 0.00 0.00 0.00 59 1016.9
20260504233821 14 101 0.0 0.0 0.00 0.00 0.00 59 1017.0
20260504233313 14 101 0.0 0.0 0.00 0.00 0.00 59 1017.0
20260504232807 14 101 0.0 0.0 0.00 0.00 0.00 58 1017.0
20260504232529 14 101 0.0 0.0 0.00 0.00 0.00 59 1017.1
20260504231756 14 101 0.0 0.0 0.00 0.00 0.00 60 1017.1
20260504231250 13 101 0.0 0.0 0.00 0.00 0.00 59 1017.1
20260504230744 14 101 0.0 0.0 0.00 0.00 0.00 59 1017.0
20260504230439 14 101 0.0 0.0 0.00 0.00 0.00 60 1017.1
20260504230322 14 101 0.0 0.0 0.00 0.00 0.00 59 1017.1
20260504225226 15 101 0.0 0.0 0.00 0.00 0.00 60 1017.1
20260504224719 15 101 0.0 0.0 0.00 0.00 0.00 56 1017.1
20260504224214 14 101 0.0 0.0 0.00 0.00 0.00 55 1017.2
20260504223707 14 101 0.0 0.0 0.00 0.00 0.00 55 1017.1
20260504223203 14 101 0.0 0.0 0.00 0.00 0.00 55 1017.2
20260504222657 15 101 0.0 1.6 0.00 0.00 0.00 54 1017.1
20260504222149 15 101 0.0 1.6 0.00 0.00 0.00 54 1017.1
20260504221644 15 101 0.0 1.6 0.00 0.00 0.00 54 1017.2
20260504221138 15 101 0.0 0.0 0.00 0.00 0.00 54 1017.2
20260504220632 15 101 0.0 3.2 0.00 0.00 0.00 54 1017.2
20260504220341 15 101 0.0 3.2 0.00 0.00 0.00 54 1017.2
20260504215619 15 103 0.0 3.2 0.00 0.00 0.00 54 1017.2
20260504215113 15 103 0.0 3.2 0.00 0.00 0.00 53 1017.3
20260504214608 15 103 0.0 3.2 0.00 0.00 0.00 54 1017.4
20260504214102 15 103 0.0 3.2 0.00 0.00 0.00 53 1017.2
20260504213821 15 103 0.0 0.0 0.00 0.00 0.00 53 1017.2
20260504213100 15 103 0.0 0.0 0.00 0.00 0.00 53 1017.2
20260504212817 15 103 0.0 1.6 0.00 0.00 0.00 54 1017.1
20260504212328 15 103 0.0 3.2 0.00 0.00 0.00 53 1017.1
20260504211558 15 103 0.0 3.2 0.00 0.00 0.00 54 1017.1
20260504211056 15 103 0.0 4.8 0.00 0.00 0.00 53 1017.1
20260504210554 15 103 0.0 4.8 0.00 0.00 0.00 53 1017.1
20260504210319 15 103 0.0 1.6 0.00 0.00 0.00 53 1017.1
20260504205550 15 103 0.0 1.6 0.00 0.00 0.00 53 1017.0
20260504205049 15 103 0.0 3.2 0.00 0.00 0.00 53 1017.1
20260504204546 15 103 1.6 3.2 0.00 0.00 0.00 53 1017.1
20260504204044 15 103 1.6 3.2 0.00 0.00 0.00 53 1017.0
20260504203543 15 103 0.0 1.6 0.00 0.00 0.00 53 1017.0
20260504203042 15 103 0.0 1.6 0.00 0.00 0.00 53 1016.9
20260504202542 15 103 0.0 1.6 0.00 0.00 0.00 53 1016.9
20260504202042 15 103 0.0 1.6 0.00 0.00 0.00 53 1016.9
20260504201542 15 103 1.6 4.8 0.00 0.00 0.00 53 1017.0
20260504201040 16 103 1.6 4.8 0.00 0.00 0.00 52 1016.9
20260504201021 16 103 0.0 3.2 0.00 0.00 0.00 52 1017.0
20260504200037 16 103 0.0 0.0 0.00 0.00 0.00 52 1016.9
20260504195536 16 103 0.0 0.0 0.00 0.00 0.00 52 1016.9
20260504195028 16 103 0.0 0.0 0.00 0.00 0.00 52 1016.7
20260504194521 16 103 0.0 0.0 0.00 0.00 0.00 52 1016.7
20260504194016 16 103 0.0 0.0 0.00 0.00 0.00 52 1016.7
20260504193733 16 103 0.0 0.0 0.00 0.00 0.00 52 1016.7
20260504193007 16 103 0.0 0.0 0.00 0.00 0.00 50 1016.6
20260504192722 16 103 0.0 0.0 0.00 0.00 0.00 51 1016.6
20260504192152 16 103 0.0 1.6 0.00 0.00 0.00 52 1016.6
20260504192036 16 103 0.0 1.6 0.00 0.00 0.00 52 1016.6
20260504190939 16 103 0.0 1.6 0.00 0.00 0.00 52 1016.6
20260504190434 17 103 0.0 3.2 0.00 0.00 0.00 52 1016.6
20260504190148 17 103 0.0 3.2 0.00 0.00 0.00 51 1016.6
20260504185422 17 103 0.0 3.2 0.00 0.00 0.00 49 1016.5
20260504184920 17 103 1.6 4.8 0.00 0.00 0.00 47 1016.5
20260504184410 17 103 3.2 6.4 0.00 0.00 0.00 46 1016.5
20260504183904 17 103 4.8 9.7 0.00 0.00 0.00 45 1016.4
20260504183358 17 104 4.8 9.7 0.00 0.00 0.00 44 1016.3
20260504182852 17 107 6.4 8.0 0.00 0.00 0.00 44 1016.3
20260504182612 17 107 4.8 9.7 0.00 0.00 0.00 44 1016.3
20260504181839 17 105 4.8 9.7 0.00 0.00 0.00 45 1016.2
20260504181334 17 123 6.4 11.3 0.00 0.00 0.00 44 1016.2
20260504180829 17 113 4.8 11.3 0.00 0.00 0.00 44 1016.2
20260504180321 17 108 3.2 8.0 0.00 0.00 0.00 45 1016.2
20260504175816 17 104 4.8 8.0 0.00 0.00 0.00 45 1016.2
20260504175309 17 89 3.2 8.0 0.00 0.00 0.00 46 1016.2
20260504174803 17 59 3.2 8.0 0.00 0.00 0.00 46 1016.2
20260504174257 18 98 4.8 11.3 0.00 0.00 0.00 48 1016.1
20260504173752 18 101 3.2 11.3 0.00 0.00 0.00 48 1016.1
20260504173246 18 111 4.8 9.7 0.00 0.00 0.00 49 1016.1
20260504172740 18 116 6.4 12.9 0.00 0.00 0.00 48 1016.0
20260504172234 18 93 4.8 12.9 0.00 0.00 0.00 47 1016.0
20260504171727 18 111 3.2 12.9 0.00 0.00 0.00 45 1016.0
20260504171420 19 122 3.2 11.3 0.00 0.00 0.00 44 1016.1
20260504171308 19 95 1.6 6.4 0.00 0.00 0.00 44 1016.0
20260504170430 19 108 4.8 11.3 0.00 0.00 0.00 44 1016.0
20260504150557 20 210 4.8 11.3 0.00 0.00 0.00 43 1016.5
20260504141040 21 206 6.4 16.1 0.00 0.00 0.00 37 1016.6
20260504140540 20 189 8.0 17.7 0.00 0.00 0.00 34 1016.9
20260504130536 20 209 6.4 14.5 0.00 0.00 0.00 37 1017.4
20260504130258 20 224 8.0 16.1 0.00 0.00 0.00 40 1017.5
20260504110455 19 230 4.8 14.5 0.00 0.00 0.00 38 1018.7
20260504100436 18 175 3.2 9.7 0.00 0.00 0.00 41 1019.2
20260504081731 15 271 4.8 9.7 0.00 0.00 0.00 44 1020.2
20260504081224 15 282 4.8 9.7 0.00 0.00 0.00 43 1020.3
20260504080719 15 251 3.2 9.7 0.00 0.00 0.00 43 1020.2
20260504080213 15 281 4.8 11.3 0.00 0.00 0.00 43 1020.2
20260504050513 12 250 1.6 16.1 0.00 0.05 0.00 61 1020.2
20260504050007 12 99 1.6 1.6 0.00 0.05 0.00 49 1020.1
20260504045726 12 99 0.0 1.6 0.00 0.05 0.00 49 1020.1
20260504044959 12 99 0.0 1.6 0.00 0.05 0.00 50 1020.0
20260504044459 12 99 0.0 1.6 0.00 0.05 0.00 52 1020.0
20260504043957 12 99 0.0 3.2 0.00 0.05 0.00 55 1020.0
20260504043457 11 99 1.6 3.2 0.00 0.05 0.00 55 1019.9
20260504043004 11 99 1.6 3.2 0.00 0.08 0.00 56 1019.9
20260504042455 11 46 0.0 1.6 0.00 0.08 0.00 57 1020.0
20260504041955 11 46 0.0 1.6 0.00 0.08 0.00 59 1020.0
20260504041455 11 46 0.0 1.6 0.00 0.08 0.00 60 1020.0
20260504040955 11 46 0.0 1.6 0.00 0.08 0.00 61 1020.0
20260504040455 10 46 0.0 0.0 0.00 0.08 0.00 63 1019.9
20260504035954 10 46 0.0 0.0 0.00 0.08 0.00 65 1019.9
20260504035455 10 46 0.0 0.0 0.00 0.08 0.00 65 1019.8
20260504035216 10 46 0.0 1.6 0.00 0.08 0.00 66 1019.8
20260504034450 10 46 0.0 1.6 0.00 0.08 0.00 66 1019.7
20260504033951 10 46 0.0 1.6 0.00 0.08 0.00 66 1019.7
20260504033450 10 46 0.0 1.6 0.00 0.08 0.00 66 1019.6
20260504033217 10 46 0.0 1.6 0.00 0.08 0.00 66 1019.6
20260504032709 10 46 0.0 1.6 0.00 0.08 0.00 65 1019.6
20260504031950 10 46 0.0 1.6 0.00 0.08 0.00 66 1019.5
20260504031450 10 46 0.0 1.6 0.00 0.08 0.00 66 1019.5
20260504030950 10 46 1.6 4.8 0.00 0.08 0.00 66 1019.5
20260504030450 10 46 1.6 4.8 0.00 0.08 0.00 66 1019.5
20260504025951 10 296 1.6 4.8 0.00 0.08 0.00 65 1019.5
20260504025709 10 296 1.6 4.8 0.00 0.08 0.00 65 1019.5
20260504024951 10 296 3.2 6.4 0.00 0.08 0.00 66 1019.5
20260504024451 10 296 3.2 6.4 0.00 0.08 0.00 68 1019.6
20260504023951 10 279 1.6 6.4 0.00 0.08 0.00 70 1019.6
20260504023450 10 296 3.2 8.0 0.00 0.08 0.00 72 1019.7
20260504022951 10 308 3.2 8.0 0.00 0.08 0.00 73 1019.6
20260504022711 10 262 3.2 4.8 0.00 0.08 0.00 73 1019.6
20260504021948 10 277 3.2 4.8 0.00 0.08 0.00 73 1019.5
20260504021442 10 263 3.2 4.8 0.00 0.08 0.00 72 1019.6
20260504020935 10 308 3.2 8.0 0.00 0.08 0.00 71 1019.5
20260504020917 10 308 1.6 8.0 0.00 0.08 0.00 67 1019.5
20260504015924 10 15 3.2 6.4 0.00 0.08 0.00 62 1019.4
20260504015417 10 291 3.2 9.7 0.00 0.08 0.00 59 1019.5
20260504014912 10 304 1.6 9.7 0.00 0.08 0.00 58 1019.5
20260504014406 10 83 0.0 4.8 0.00 0.08 0.00 59 1019.4
20260504013900 10 83 1.6 4.8 0.00 0.08 0.00 60 1019.3
20260504013613 10 91 3.2 4.8 0.00 0.08 0.00 61 1019.3
20260504013114 10 91 1.6 4.8 0.00 0.08 0.00 61 1019.3
20260504012344 10 99 1.6 3.2 0.00 0.08 0.00 62 1019.3
20260504011835 11 99 1.6 6.4 0.00 0.08 0.00 61 1019.2
20260504011337 11 99 3.2 6.4 0.00 0.08 0.00 60 1019.2
20260504011102 11 99 3.2 6.4 0.00 0.08 0.00 60 1019.1
20260504010332 11 91 1.6 6.4 0.00 0.08 0.00 60 1019.1
20260504005830 10 101 1.6 4.8 0.00 0.08 0.00 61 1019.1
20260504005328 11 101 3.2 4.8 0.00 0.08 0.00 61 1019.1
20260504004829 10 95 3.2 6.4 0.00 0.08 0.00 61 1019.1
20260504004328 10 102 4.8 8.0 0.00 0.08 0.00 61 1019.1
20260504003826 11 103 4.8 8.0 0.00 0.08 0.00 61 1019.1
20260504003324 11 105 1.6 8.0 0.00 0.08 0.00 61 1019.0
20260504002824 11 107 0.0 0.0 0.00 0.08 0.00 62 1019.0
20260504002544 11 107 0.0 1.6 0.00 0.08 0.00 62 1019.0
20260504001822 11 107 0.0 3.2 0.00 0.08 0.00 63 1019.0